,,,PA_Meas_PMT16A,,PR_Meas_QMR101_102,,RH_Meas_QMH101,,SR_Meas_QMS101,,TA_Meas_QMH101,,GenWind,,GenWind,
date,time,status,PA,status,PR,status,RH,status,SR,status,TA,status,DirAvg,status,SpdAvg,
2009-05-07, 00:00:04,VALID,1005.44,VALID,0,VALID,94.4074,VALID,0,VALID,23.7017,VALID,360,VALID,0.266016,
2009-05-07, 00:01:04,VALID,1005.42,VALID,0,VALID,94.3616,VALID,0,VALID,23.6841,VALID,360,VALID,0.322266,
2009-05-07, 00:02:04,VALID,1005.41,VALID,0,VALID,94.3845,VALID,0,VALID,23.6841,VALID,360,VALID,0.302734,
2009-05-07, 00:03:04,VALID,1005.37,VALID,0,VALID,94.3769,VALID,0,VALID,23.6628,VALID,360,VALID,0.364844,
2009-05-07, 00:04:04,VALID,1005.36,VALID,0,VALID,94.4379,VALID,0,VALID,23.6628,VALID,360,VALID,0.221484,
2009-05-07, 00:05:04,VALID,1005.29,VALID,0,VALID,94.4227,VALID,0,VALID,23.6646,VALID,360,VALID,0.191016,
2009-05-07, 00:06:04,VALID,1005.28,VALID,0,VALID,94.4684,VALID,0,VALID,23.6434,VALID,360,VALID,0.301562,
2009-05-07, 00:07:04,VALID,1005.28,VALID,0,VALID,94.4837,VALID,0,VALID,23.6841,VALID,360,VALID,0.436719,
2009-05-07, 00:08:04,VALID,1005.25,VALID,0,VALID,94.4913,VALID,0,VALID,23.6646,VALID,360,VALID,0.298047,
2009-05-07, 00:09:04,VALID,1005.22,VALID,0,VALID,94.5066,VALID,0,VALID,23.6239,VALID,360,VALID,0.153516,
2009-05-07, 00:10:04,VALID,1005.24,VALID,0,VALID,94.4989,VALID,0,VALID,23.6239,VALID,360,VALID,0,
2009-05-07, 00:11:04,VALID,1005.21,VALID,0,VALID,94.5295,VALID,0,VALID,23.6257,VALID,360,VALID,0,
2009-05-07, 00:12:04,VALID,1005.18,VALID,0,VALID,94.5295,VALID,0,VALID,23.6062,VALID,360,VALID,0,
2009-05-07, 00:13:04,VALID,1005.16,VALID,0,VALID,94.5371,VALID,0,VALID,23.6062,VALID,360,VALID,0,
2009-05-07, 00:14:04,VALID,1005.14,VALID,0,VALID,94.5447,VALID,0,VALID,23.5868,VALID,360,VALID,0,
2009-05-07, 00:15:04,VALID,1005.12,VALID,0,VALID,94.56,VALID,0,VALID,23.5655,VALID,360,VALID,0,
2009-05-07, 00:16:04,VALID,1005.14,VALID,0,VALID,94.5829,VALID,0,VALID,23.5868,VALID,360,VALID,0,
2009-05-07, 00:17:04,VALID,1005.09,VALID,0,VALID,94.621,VALID,0,VALID,23.5655,VALID,360,VALID,0.380078,
2009-05-07, 00:18:04,VALID,1005.09,VALID,0,VALID,94.6439,VALID,0,VALID,23.5655,VALID,360,VALID,0.380859,
2009-05-07, 00:19:04,VALID,1005.08,VALID,0,VALID,94.6439,VALID,0,VALID,23.6062,VALID,360,VALID,0.422266,
2009-05-07, 00:20:04,VALID,1005.09,VALID,0,VALID,94.6439,VALID,0,VALID,23.6062,VALID,360,VALID,0.494922,
2009-05-07, 00:21:04,VALID,1005.07,VALID,0,VALID,94.6439,VALID,0,VALID,23.6062,VALID,360,VALID,0.530469,
2009-05-07, 00:22:04,VALID,1005.03,VALID,0,VALID,94.6363,VALID,0,VALID,23.585,VALID,360,VALID,0.432031,
2009-05-07, 00:23:04,VALID,1005.03,VALID,0,VALID,94.621,VALID,0,VALID,23.6062,VALID,360,VALID,0.45,
2009-05-07, 00:24:04,VALID,1005,VALID,0,VALID,94.6134,VALID,0,VALID,23.5655,VALID,360,VALID,0.247266,
2009-05-07, 00:25:04,VALID,1004.95,VALID,0,VALID,94.7202,VALID,0,VALID,23.6062,VALID,360,VALID,0.375,
2009-05-07, 00:26:04,VALID,1004.92,VALID,0,VALID,94.7736,VALID,0,VALID,23.6239,VALID,360,VALID,0.265234,
2009-05-07, 00:27:04,VALID,1004.9,VALID,0,VALID,94.8117,VALID,0,VALID,23.6823,VALID,360,VALID,0.357812,
2009-05-07, 00:28:04,VALID,1004.87,VALID,0,VALID,94.827,VALID,0,VALID,23.723,VALID,360,VALID,0.324609,
2009-05-07, 00:29:04,VALID,1004.83,VALID,0,VALID,94.7354,VALID,0,VALID,23.6823,VALID,360,VALID,0.432422,
2009-05-07, 00:30:04,VALID,1004.81,VALID,0,VALID,94.6897,VALID,0,VALID,23.6823,VALID,360,VALID,0.319141,
2009-05-07, 00:31:04,VALID,1004.79,VALID,0,VALID,94.6973,VALID,0,VALID,23.6628,VALID,360,VALID,0.123438,
2009-05-07, 00:32:04,VALID,1004.77,VALID,0,VALID,94.6744,VALID,0,VALID,23.6628,VALID,360,VALID,0.0660156,
2009-05-07, 00:33:04,VALID,1004.75,VALID,0,VALID,94.6744,VALID,0,VALID,23.6841,VALID,360,VALID,0.205469,
2009-05-07, 00:34:04,VALID,1004.71,VALID,0,VALID,94.6668,VALID,0,VALID,23.7035,VALID,360,VALID,0.261719,
2009-05-07, 00:35:04,VALID,1004.7,VALID,0,VALID,94.6439,VALID,0,VALID,23.6823,VALID,360,VALID,0.155469,
2009-05-07, 00:36:04,VALID,1004.7,VALID,0,VALID,94.6134,VALID,0,VALID,23.6823,VALID,360,VALID,0.0898438,
2009-05-07, 00:37:04,VALID,1004.65,VALID,0,VALID,94.5676,VALID,0,VALID,23.6628,VALID,360,VALID,0.0140625,
2009-05-07, 00:38:04,VALID,1004.67,VALID,0,VALID,94.56,VALID,0,VALID,23.6434,VALID,360,VALID,0.271875,
2009-05-07, 00:39:04,VALID,1004.67,VALID,0,VALID,94.5295,VALID,0,VALID,23.6646,VALID,360,VALID,0.212109,
2009-05-07, 00:40:04,VALID,1004.64,VALID,0,VALID,94.4837,VALID,0,VALID,23.6044,VALID,360,VALID,0.268359,
2009-05-07, 00:41:04,VALID,1004.6,VALID,0,VALID,94.4455,VALID,0,VALID,23.5655,VALID,360,VALID,0.225781,
2009-05-07, 00:42:04,VALID,1004.57,VALID,0,VALID,94.4227,VALID,0,VALID,23.546,VALID,360,VALID,0.302734,
2009-05-07, 00:43:04,VALID,1004.58,VALID,0,VALID,94.4379,VALID,0,VALID,23.5266,VALID,360,VALID,0.237891,
2009-05-07, 00:44:04,VALID,1004.54,VALID,0,VALID,94.5905,VALID,0,VALID,23.546,VALID,360,VALID,0.423047,
2009-05-07, 00:45:04,VALID,1004.51,VALID,0,VALID,94.6286,VALID,0,VALID,23.585,VALID,360,VALID,0.448047,
2009-05-07, 00:46:04,VALID,1004.5,VALID,0,VALID,94.6057,VALID,0,VALID,23.585,VALID,360,VALID,0.413672,
2009-05-07, 00:47:04,VALID,1004.47,VALID,0,VALID,94.5829,VALID,0,VALID,23.5868,VALID,360,VALID,0.45,
2009-05-07, 00:48:04,VALID,1004.43,VALID,0,VALID,94.5981,VALID,0,VALID,23.5655,VALID,360,VALID,0.503516,
2009-05-07, 00:49:04,VALID,1004.38,VALID,0,VALID,94.56,VALID,0,VALID,23.5478,VALID,360,VALID,0.510938,
2009-05-07, 00:50:04,VALID,1004.33,VALID,0,VALID,94.5371,VALID,0,VALID,23.5266,VALID,360,VALID,0.487891,
2009-05-07, 00:51:04,VALID,1004.29,VALID,0,VALID,94.5523,VALID,0,VALID,23.5284,VALID,360,VALID,0.549219,
2009-05-07, 00:52:04,VALID,1004.23,VALID,0,VALID,94.6363,VALID,0,VALID,23.5071,VALID,360,VALID,0.408203,
2009-05-07, 00:53:04,VALID,1004.23,VALID,0,VALID,94.6744,VALID,0,VALID,23.5478,VALID,360,VALID,0.350391,
2009-05-07, 00:54:04,VALID,1004.2,VALID,0,VALID,94.7583,VALID,0,VALID,23.5673,VALID,360,VALID,0.0285156,
2009-05-07, 00:55:04,VALID,1004.22,VALID,0,VALID,94.7812,VALID,0,VALID,23.5443,VALID,360,VALID,0,
2009-05-07, 00:56:04,VALID,1004.19,VALID,0,VALID,94.7583,VALID,0,VALID,23.5868,VALID,360,VALID,0,
2009-05-07, 00:57:04,VALID,1004.18,VALID,0,VALID,94.6973,VALID,0,VALID,23.5655,VALID,360,VALID,0,
2009-05-07, 00:58:04,VALID,1004.13,VALID,0,VALID,94.7202,VALID,0,VALID,23.5868,VALID,360,VALID,0,
2009-05-07, 00:59:04,VALID,1004.13,VALID,0,VALID,94.7202,VALID,0,VALID,23.5655,VALID,360,VALID,0,
2009-05-07, 01:00:04,VALID,1004.11,VALID,0,VALID,94.7202,VALID,0,VALID,23.5655,VALID,360,VALID,0,
2009-05-07, 01:01:04,VALID,1004.09,VALID,0,VALID,94.7125,VALID,0,VALID,23.5655,VALID,360,VALID,0,
2009-05-07, 01:02:04,VALID,1004.06,VALID,0,VALID,94.7354,VALID,0,VALID,23.5478,VALID,360,VALID,0,
2009-05-07, 01:03:04,VALID,1004.05,VALID,0,VALID,94.7125,VALID,0,VALID,23.5868,VALID,360,VALID,0,
2009-05-07, 01:04:04,VALID,1004.05,VALID,0,VALID,94.766,VALID,0,VALID,23.546,VALID,360,VALID,0,
2009-05-07, 01:05:04,VALID,1004.04,VALID,0,VALID,94.8041,VALID,0,VALID,23.5655,VALID,360,VALID,0,
2009-05-07, 01:06:04,VALID,1004.02,VALID,0,VALID,94.827,VALID,0,VALID,23.5868,VALID,360,VALID,0,
2009-05-07, 01:07:04,VALID,1003.99,VALID,0,VALID,94.8194,VALID,0,VALID,23.5655,VALID,360,VALID,0,
2009-05-07, 01:08:04,VALID,1004,VALID,0,VALID,94.8422,VALID,0,VALID,23.546,VALID,360,VALID,0,
2009-05-07, 01:09:04,VALID,1003.96,VALID,0,VALID,94.8575,VALID,0,VALID,23.5868,VALID,360,VALID,0,
2009-05-07, 01:10:04,VALID,1003.97,VALID,0,VALID,94.8499,VALID,0,VALID,23.5868,VALID,360,VALID,0,
2009-05-07, 01:11:04,VALID,1003.97,VALID,0,VALID,94.8575,VALID,0,VALID,23.5655,VALID,360,VALID,0,
2009-05-07, 01:12:04,VALID,1003.96,VALID,0,VALID,94.8575,VALID,0,VALID,23.5868,VALID,360,VALID,0,
2009-05-07, 01:13:04,VALID,1003.97,VALID,0,VALID,94.8651,VALID,0,VALID,23.5673,VALID,360,VALID,0,
2009-05-07, 01:14:04,VALID,1003.93,VALID,0,VALID,94.8651,VALID,0,VALID,23.5673,VALID,360,VALID,0,
2009-05-07, 01:15:04,VALID,1003.96,VALID,0,VALID,94.827,VALID,0,VALID,23.5266,VALID,360,VALID,0,
2009-05-07, 01:16:04,VALID,1003.94,VALID,0,VALID,94.8041,VALID,0,VALID,23.5284,VALID,360,VALID,0,
2009-05-07, 01:17:04,VALID,1003.97,VALID,0,VALID,94.7965,VALID,0,VALID,23.4894,VALID,360,VALID,0,
2009-05-07, 01:18:04,VALID,1003.93,VALID,0,VALID,94.7736,VALID,0,VALID,23.4894,VALID,360,VALID,0,
2009-05-07, 01:19:04,VALID,1003.98,VALID,0,VALID,94.7965,VALID,0,VALID,23.47,VALID,360,VALID,0,
2009-05-07, 01:20:04,VALID,1003.98,VALID,0,VALID,94.7965,VALID,0,VALID,23.4293,VALID,360,VALID,0,
2009-05-07, 01:21:04,VALID,1003.96,VALID,0,VALID,94.888,VALID,0,VALID,23.4293,VALID,360,VALID,0,
2009-05-07, 01:22:04,VALID,1003.96,VALID,0,VALID,94.8728,VALID,0,VALID,23.4487,VALID,360,VALID,0,
2009-05-07, 01:23:04,VALID,1003.96,VALID,0,VALID,94.8499,VALID,0,VALID,23.4293,VALID,360,VALID,0,
2009-05-07, 01:24:04,VALID,1003.93,VALID,0,VALID,94.8804,VALID,0,VALID,23.4293,VALID,360,VALID,0,
2009-05-07, 01:25:04,VALID,1003.89,VALID,0,VALID,94.9185,VALID,0,VALID,23.4505,VALID,360,VALID,0,
2009-05-07, 01:26:04,VALID,1003.88,VALID,0,VALID,94.8956,VALID,0,VALID,23.4311,VALID,360,VALID,0,
2009-05-07, 01:27:04,VALID,1003.82,VALID,0,VALID,94.8728,VALID,0,VALID,23.4311,VALID,360,VALID,0,
2009-05-07, 01:28:04,VALID,1003.76,VALID,0,VALID,94.9643,VALID,0,VALID,23.4293,VALID,360,VALID,0,
2009-05-07, 01:29:04,VALID,1003.75,VALID,0,VALID,95.0177,VALID,0,VALID,23.4682,VALID,360,VALID,0,
2009-05-07, 01:30:04,VALID,1003.75,VALID,0,VALID,95.0101,VALID,0,VALID,23.47,VALID,360,VALID,0.333203,
2009-05-07, 01:31:04,VALID,1003.71,VALID,0,VALID,95.0024,VALID,0,VALID,23.4894,VALID,360,VALID,0.268359,
2009-05-07, 01:32:04,VALID,1003.73,VALID,0,VALID,95.0406,VALID,0,VALID,23.4894,VALID,360,VALID,0.376953,
2009-05-07, 01:33:04,VALID,1003.74,VALID,0,VALID,94.9872,VALID,0,VALID,23.4682,VALID,360,VALID,0.257031,
2009-05-07, 01:34:04,VALID,1003.74,VALID,0,VALID,94.9338,VALID,0,VALID,23.4293,VALID,360,VALID,0.209766,
2009-05-07, 01:35:04,VALID,1003.72,VALID,0,VALID,94.9414,VALID,0,VALID,23.4098,VALID,360,VALID,0.169531,
2009-05-07, 01:36:04,VALID,1003.7,VALID,0,VALID,94.9109,VALID,0,VALID,23.4116,VALID,360,VALID,0.00234375,
2009-05-07, 01:37:04,VALID,1003.68,VALID,0,VALID,94.9185,VALID,0,VALID,23.3904,VALID,360,VALID,0,
2009-05-07, 01:38:04,VALID,1003.65,VALID,0,VALID,94.9185,VALID,0,VALID,23.3709,VALID,360,VALID,0,
2009-05-07, 01:39:04,VALID,1003.65,VALID,0,VALID,94.949,VALID,0,VALID,23.3921,VALID,360,VALID,0.155078,
2009-05-07, 01:40:04,VALID,1003.66,VALID,0,VALID,94.949,VALID,0,VALID,23.3709,VALID,360,VALID,0.264453,
2009-05-07, 01:41:04,VALID,1003.68,VALID,0,VALID,94.9109,VALID,0,VALID,23.3921,VALID,360,VALID,0.362891,
2009-05-07, 01:42:04,VALID,1003.68,VALID,0,VALID,94.9338,VALID,0,VALID,23.3514,VALID,360,VALID,0.401953,
2009-05-07, 01:43:04,VALID,1003.67,VALID,0,VALID,94.9338,VALID,0,VALID,23.332,VALID,360,VALID,0.388672,
2009-05-07, 01:44:04,VALID,1003.66,VALID,0,VALID,94.9414,VALID,0,VALID,23.3532,VALID,360,VALID,0.308203,
2009-05-07, 01:45:04,VALID,1003.66,VALID,0,VALID,94.9414,VALID,0,VALID,23.332,VALID,360,VALID,0.420312,
2009-05-07, 01:46:04,VALID,1003.63,VALID,0,VALID,94.9872,VALID,0,VALID,23.332,VALID,360,VALID,0.490234,
2009-05-07, 01:47:04,VALID,1003.65,VALID,0,VALID,94.9643,VALID,0,VALID,23.3125,VALID,360,VALID,0.363672,
2009-05-07, 01:48:04,VALID,1003.65,VALID,0,VALID,94.9109,VALID,0,VALID,23.2736,VALID,360,VALID,0.261719,
2009-05-07, 01:49:04,VALID,1003.65,VALID,0,VALID,94.9796,VALID,0,VALID,23.2931,VALID,360,VALID,0.15,
2009-05-07, 01:50:04,VALID,1003.65,VALID,0,VALID,94.9567,VALID,0,VALID,23.2754,VALID,360,VALID,0.107422,
2009-05-07, 01:51:04,VALID,1003.69,VALID,0,VALID,95.0024,VALID,0,VALID,23.2736,VALID,360,VALID,0,
2009-05-07, 01:52:04,VALID,1003.71,VALID,0,VALID,94.9796,VALID,0,VALID,23.2754,VALID,360,VALID,0.0882813,
2009-05-07, 01:53:04,VALID,1003.73,VALID,0,VALID,94.9796,VALID,0,VALID,23.2736,VALID,360,VALID,0,
2009-05-07, 01:54:04,VALID,1003.72,VALID,0,VALID,94.9872,VALID,0,VALID,23.2541,VALID,360,VALID,0.128516,
2009-05-07, 01:55:04,VALID,1003.7,VALID,0,VALID,95.0253,VALID,0,VALID,23.2736,VALID,360,VALID,0.418359,
2009-05-07, 01:56:04,VALID,1003.7,VALID,0,VALID,95.0253,VALID,0,VALID,23.2736,VALID,360,VALID,0.514063,
2009-05-07, 01:57:04,VALID,1003.68,VALID,0,VALID,95.0253,VALID,0.100563,VALID,23.2541,VALID,360,VALID,0.341797,
2009-05-07, 01:58:04,VALID,1003.67,VALID,0,VALID,95.0177,VALID,0,VALID,23.2754,VALID,360,VALID,0.403516,
2009-05-07, 01:59:04,VALID,1003.68,VALID,0,VALID,95.0177,VALID,0,VALID,23.2559,VALID,360,VALID,0.374609,
2009-05-07, 02:00:04,VALID,1003.68,VALID,0,VALID,94.9948,VALID,0,VALID,23.2347,VALID,360,VALID,0.323047,
2009-05-07, 02:01:04,VALID,1003.67,VALID,0,VALID,95.0024,VALID,0,VALID,23.2152,VALID,360,VALID,0.120312,
2009-05-07, 02:02:04,VALID,1003.69,VALID,0,VALID,94.9796,VALID,0,VALID,23.217,VALID,360,VALID,0.00195313,
2009-05-07, 02:03:04,VALID,1003.72,VALID,0,VALID,94.9872,VALID,0,VALID,23.1975,VALID,360,VALID,0.0210938,
2009-05-07, 02:04:04,VALID,1003.73,VALID,0,VALID,94.9948,VALID,0,VALID,23.1975,VALID,360,VALID,0.122656,
2009-05-07, 02:05:04,VALID,1003.72,VALID,0,VALID,94.9796,VALID,0,VALID,23.1763,VALID,360,VALID,0.266797,
2009-05-07, 02:06:04,VALID,1003.73,VALID,0,VALID,94.9796,VALID,0,VALID,23.1568,VALID,360,VALID,0.249219,
2009-05-07, 02:07:04,VALID,1003.74,VALID,0,VALID,95.0177,VALID,0,VALID,23.178,VALID,360,VALID,0.278516,
2009-05-07, 02:08:04,VALID,1003.72,VALID,0,VALID,95.1627,VALID,0,VALID,23.2152,VALID,360,VALID,0.200391,
2009-05-07, 02:09:04,VALID,1003.72,VALID,0,VALID,95.155,VALID,0,VALID,23.2347,VALID,360,VALID,0.204688,
2009-05-07, 02:10:04,VALID,1003.69,VALID,0,VALID,95.1245,VALID,0,VALID,23.2347,VALID,360,VALID,0.304688,
2009-05-07, 02:11:04,VALID,1003.72,VALID,0,VALID,95.094,VALID,0,VALID,23.2152,VALID,360,VALID,0.123047,
2009-05-07, 02:12:04,VALID,1003.71,VALID,0,VALID,95.0787,VALID,0,VALID,23.2347,VALID,360,VALID,0.131641,
2009-05-07, 02:13:04,VALID,1003.69,VALID,0,VALID,95.1245,VALID,0,VALID,23.2152,VALID,360,VALID,0.0230469,
2009-05-07, 02:14:04,VALID,1003.69,VALID,0,VALID,95.1932,VALID,0,VALID,23.2347,VALID,360,VALID,0.129297,
2009-05-07, 02:15:04,VALID,1003.71,VALID,0,VALID,95.2084,VALID,0.100563,VALID,23.2736,VALID,360,VALID,0.150391,
2009-05-07, 02:16:04,VALID,1003.73,VALID,0,VALID,95.2161,VALID,0,VALID,23.2931,VALID,360,VALID,0.131641,
2009-05-07, 02:17:04,VALID,1003.75,VALID,0,VALID,95.2161,VALID,0,VALID,23.3532,VALID,360,VALID,0.242188,
2009-05-07, 02:18:04,VALID,1003.75,VALID,0,VALID,95.1703,VALID,0,VALID,23.3125,VALID,360,VALID,0.315625,
2009-05-07, 02:19:04,VALID,1003.77,VALID,0,VALID,95.033,VALID,0,VALID,23.2736,VALID,360,VALID,0.540625,
2009-05-07, 02:20:04,VALID,1003.8,VALID,0,VALID,95.0711,VALID,0,VALID,23.2754,VALID,360,VALID,0.594922,
2009-05-07, 02:21:04,VALID,1003.83,VALID,0,VALID,95.0635,VALID,0,VALID,23.2559,VALID,360,VALID,0.507813,
2009-05-07, 02:22:04,VALID,1003.82,VALID,0,VALID,95.0558,VALID,0,VALID,23.1957,VALID,360,VALID,0.674219,
2009-05-07, 02:23:04,VALID,1003.85,VALID,0,VALID,95.0864,VALID,0,VALID,23.217,VALID,360,VALID,0.530469,
2009-05-07, 02:24:04,VALID,1003.84,VALID,0,VALID,95.1398,VALID,0,VALID,23.217,VALID,360,VALID,0.498437,
2009-05-07, 02:25:04,VALID,1003.87,VALID,0,VALID,95.0864,VALID,0,VALID,23.1975,VALID,360,VALID,0.475,
2009-05-07, 02:26:04,VALID,1003.83,VALID,0,VALID,95.0864,VALID,0,VALID,23.1975,VALID,360,VALID,0.449609,
2009-05-07, 02:27:04,VALID,1003.85,VALID,0,VALID,95.1321,VALID,0,VALID,23.1975,VALID,360,VALID,0.253516,
2009-05-07, 02:28:04,VALID,1003.86,VALID,0,VALID,95.2008,VALID,0,VALID,23.217,VALID,360,VALID,0.215625,
2009-05-07, 02:29:04,VALID,1003.83,VALID,0,VALID,95.2084,VALID,0,VALID,23.2364,VALID,360,VALID,0.0121094,
2009-05-07, 02:30:04,VALID,1003.81,VALID,0,VALID,95.1627,VALID,0,VALID,23.2152,VALID,360,VALID,0,
2009-05-07, 02:31:04,VALID,1003.83,VALID,0,VALID,95.1321,VALID,0,VALID,23.2364,VALID,360,VALID,0,
2009-05-07, 02:32:04,VALID,1003.8,VALID,0,VALID,95.1321,VALID,0,VALID,23.217,VALID,360,VALID,0.00195313,
2009-05-07, 02:33:04,VALID,1003.79,VALID,0,VALID,95.1321,VALID,0,VALID,23.1957,VALID,360,VALID,0.242969,
2009-05-07, 02:34:04,VALID,1003.79,VALID,0,VALID,95.1321,VALID,0,VALID,23.1975,VALID,360,VALID,0.352344,
2009-05-07, 02:35:04,VALID,1003.81,VALID,0,VALID,95.1627,VALID,0,VALID,23.1975,VALID,360,VALID,0.480859,
2009-05-07, 02:36:04,VALID,1003.8,VALID,0,VALID,95.1627,VALID,0,VALID,23.1975,VALID,360,VALID,0.457422,
2009-05-07, 02:37:04,VALID,1003.84,VALID,0,VALID,95.1474,VALID,0,VALID,23.178,VALID,360,VALID,0.391016,
2009-05-07, 02:38:04,VALID,1003.84,VALID,0,VALID,95.1779,VALID,0,VALID,23.1568,VALID,360,VALID,0.354688,
2009-05-07, 02:39:04,VALID,1003.85,VALID,0,VALID,95.1779,VALID,0,VALID,23.178,VALID,360,VALID,0.195313,
2009-05-07, 02:40:04,VALID,1003.87,VALID,0,VALID,95.2466,VALID,0,VALID,23.1763,VALID,360,VALID,0.110547,
2009-05-07, 02:41:04,VALID,1003.86,VALID,0,VALID,95.2466,VALID,0,VALID,23.1957,VALID,360,VALID,0,
2009-05-07, 02:42:04,VALID,1003.87,VALID,0,VALID,95.2542,VALID,0,VALID,23.217,VALID,360,VALID,0,
2009-05-07, 02:43:04,VALID,1003.82,VALID,0,VALID,95.2389,VALID,0,VALID,23.2152,VALID,360,VALID,0,
2009-05-07, 02:44:04,VALID,1003.81,VALID,0,VALID,95.2008,VALID,0,VALID,23.1957,VALID,360,VALID,0,
2009-05-07, 02:45:04,VALID,1003.81,VALID,0,VALID,95.1932,VALID,0,VALID,23.2152,VALID,360,VALID,0,
2009-05-07, 02:46:04,VALID,1003.79,VALID,0,VALID,95.2618,VALID,0,VALID,23.2364,VALID,360,VALID,0,
2009-05-07, 02:47:04,VALID,1003.79,VALID,0,VALID,95.2542,VALID,0.100563,VALID,23.2559,VALID,360,VALID,0,
2009-05-07, 02:48:04,VALID,1003.81,VALID,0,VALID,95.2389,VALID,0.100563,VALID,23.2347,VALID,360,VALID,0,
2009-05-07, 02:49:04,VALID,1003.81,VALID,0,VALID,95.1932,VALID,0,VALID,23.2364,VALID,360,VALID,0,
2009-05-07, 02:50:04,VALID,1003.86,VALID,0,VALID,95.1779,VALID,0,VALID,23.1763,VALID,360,VALID,0,
2009-05-07, 02:51:04,VALID,1003.88,VALID,0,VALID,95.2542,VALID,0,VALID,23.1975,VALID,360,VALID,0.357422,
2009-05-07, 02:52:04,VALID,1003.9,VALID,0,VALID,95.2771,VALID,0,VALID,23.2347,VALID,360,VALID,0.383984,
2009-05-07, 02:53:04,VALID,1003.91,VALID,0,VALID,95.3076,VALID,0,VALID,23.2754,VALID,360,VALID,0.356641,
2009-05-07, 02:54:04,VALID,1003.93,VALID,0,VALID,95.2923,VALID,0,VALID,23.2559,VALID,360,VALID,0.458203,
2009-05-07, 02:55:04,VALID,1003.94,VALID,0,VALID,95.2771,VALID,0,VALID,23.2559,VALID,360,VALID,0.485156,
2009-05-07, 02:56:04,VALID,1003.96,VALID,0,VALID,95.2847,VALID,0,VALID,23.2364,VALID,360,VALID,0.240234,
2009-05-07, 02:57:04,VALID,1003.95,VALID,0,VALID,95.2771,VALID,0,VALID,23.2347,VALID,360,VALID,0.410547,
2009-05-07, 02:58:04,VALID,1003.94,VALID,0,VALID,95.3152,VALID,0,VALID,23.2541,VALID,360,VALID,0.479688,
2009-05-07, 02:59:04,VALID,1003.94,VALID,0,VALID,95.3305,VALID,0,VALID,23.2948,VALID,360,VALID,0.48125,
2009-05-07, 03:00:04,VALID,1003.95,VALID,0,VALID,95.3229,VALID,0,VALID,23.3143,VALID,360,VALID,0.387891,
2009-05-07, 03:01:04,VALID,1003.93,VALID,0,VALID,95.3229,VALID,0,VALID,23.3337,VALID,360,VALID,0.25,
2009-05-07, 03:02:04,VALID,1003.94,VALID,0,VALID,95.3152,VALID,0,VALID,23.2736,VALID,360,VALID,0.0460938,
2009-05-07, 03:03:04,VALID,1003.94,VALID,0,VALID,95.3229,VALID,0,VALID,23.2948,VALID,360,VALID,0,
2009-05-07, 03:04:04,VALID,1003.9,VALID,0,VALID,95.2923,VALID,0,VALID,23.2541,VALID,360,VALID,0,
2009-05-07, 03:05:04,VALID,1003.92,VALID,0,VALID,95.2923,VALID,0,VALID,23.2559,VALID,360,VALID,0,
2009-05-07, 03:06:04,VALID,1003.91,VALID,0,VALID,95.3,VALID,0,VALID,23.2948,VALID,360,VALID,0,
2009-05-07, 03:07:04,VALID,1003.92,VALID,0,VALID,95.2923,VALID,0,VALID,23.2754,VALID,360,VALID,0,
2009-05-07, 03:08:04,VALID,1003.92,VALID,0,VALID,95.2847,VALID,0,VALID,23.2754,VALID,360,VALID,0,
2009-05-07, 03:09:04,VALID,1003.92,VALID,0,VALID,95.3076,VALID,0,VALID,23.2736,VALID,360,VALID,0,
2009-05-07, 03:10:04,VALID,1003.93,VALID,0,VALID,95.3305,VALID,0,VALID,23.3143,VALID,360,VALID,0,
2009-05-07, 03:11:04,VALID,1003.9,VALID,0,VALID,95.3381,VALID,0,VALID,23.3337,VALID,360,VALID,0,
2009-05-07, 03:12:04,VALID,1003.89,VALID,0,VALID,95.3457,VALID,0,VALID,23.3514,VALID,360,VALID,0,
2009-05-07, 03:13:04,VALID,1003.89,VALID,0,VALID,95.3457,VALID,0,VALID,23.3125,VALID,360,VALID,0,
2009-05-07, 03:14:04,VALID,1003.9,VALID,0,VALID,95.3457,VALID,0.100563,VALID,23.2931,VALID,360,VALID,0,
2009-05-07, 03:15:04,VALID,1003.86,VALID,0,VALID,95.2923,VALID,0,VALID,23.2347,VALID,360,VALID,0,
2009-05-07, 03:16:04,VALID,1003.87,VALID,0,VALID,95.3,VALID,0,VALID,23.2152,VALID,360,VALID,0,
2009-05-07, 03:17:04,VALID,1003.84,VALID,0,VALID,95.2618,VALID,0,VALID,23.1763,VALID,360,VALID,0,
2009-05-07, 03:18:04,VALID,1003.82,VALID,0,VALID,95.2542,VALID,0,VALID,23.178,VALID,360,VALID,0,
2009-05-07, 03:19:04,VALID,1003.79,VALID,0,VALID,95.2237,VALID,0,VALID,23.178,VALID,360,VALID,0,
2009-05-07, 03:20:04,VALID,1003.78,VALID,0,VALID,95.2313,VALID,0,VALID,23.1179,VALID,360,VALID,0,
2009-05-07, 03:21:04,VALID,1003.75,VALID,0,VALID,95.2695,VALID,0,VALID,23.1586,VALID,360,VALID,0,
2009-05-07, 03:22:04,VALID,1003.74,VALID,0,VALID,95.2695,VALID,0,VALID,23.1975,VALID,360,VALID,0,
2009-05-07, 03:23:04,VALID,1003.74,VALID,0,VALID,95.3,VALID,0,VALID,23.1957,VALID,360,VALID,0,
2009-05-07, 03:24:04,VALID,1003.76,VALID,0,VALID,95.3,VALID,0,VALID,23.2347,VALID,360,VALID,0,
2009-05-07, 03:25:04,VALID,1003.76,VALID,0,VALID,95.3229,VALID,0,VALID,23.2754,VALID,360,VALID,0,
2009-05-07, 03:26:04,VALID,1003.75,VALID,0,VALID,95.3305,VALID,0,VALID,23.3125,VALID,360,VALID,0,
2009-05-07, 03:27:04,VALID,1003.77,VALID,0,VALID,95.3534,VALID,0,VALID,23.3514,VALID,360,VALID,0,
2009-05-07, 03:28:04,VALID,1003.73,VALID,0,VALID,95.3686,VALID,0,VALID,23.4098,VALID,360,VALID,0,
2009-05-07, 03:29:04,VALID,1003.67,VALID,0,VALID,95.3991,VALID,0,VALID,23.4505,VALID,360,VALID,0,
2009-05-07, 03:30:04,VALID,1003.67,VALID,0,VALID,95.3839,VALID,0,VALID,23.47,VALID,360,VALID,0,
2009-05-07, 03:31:04,VALID,1003.67,VALID,0,VALID,95.3915,VALID,0,VALID,23.47,VALID,360,VALID,0,
2009-05-07, 03:32:04,VALID,1003.63,VALID,0,VALID,95.3839,VALID,0,VALID,23.4682,VALID,360,VALID,0,
2009-05-07, 03:33:04,VALID,1003.64,VALID,0,VALID,95.4068,VALID,0,VALID,23.4894,VALID,360,VALID,0,
2009-05-07, 03:34:04,VALID,1003.59,VALID,0,VALID,95.4068,VALID,0,VALID,23.4682,VALID,360,VALID,0,
2009-05-07, 03:35:04,VALID,1003.58,VALID,0,VALID,95.3686,VALID,0,VALID,23.4293,VALID,360,VALID,0,
2009-05-07, 03:36:04,VALID,1003.55,VALID,0,VALID,95.361,VALID,0,VALID,23.4098,VALID,360,VALID,0,
2009-05-07, 03:37:04,VALID,1003.55,VALID,0,VALID,95.3381,VALID,0,VALID,23.3532,VALID,360,VALID,0,
2009-05-07, 03:38:04,VALID,1003.56,VALID,0,VALID,95.3229,VALID,0,VALID,23.3125,VALID,360,VALID,0,
2009-05-07, 03:39:04,VALID,1003.54,VALID,0,VALID,95.3457,VALID,0,VALID,23.3514,VALID,360,VALID,0,
2009-05-07, 03:40:04,VALID,1003.58,VALID,0,VALID,95.3839,VALID,0,VALID,23.4505,VALID,360,VALID,0,
2009-05-07, 03:41:04,VALID,1003.6,VALID,0,VALID,95.422,VALID,0,VALID,23.5284,VALID,360,VALID,0,
2009-05-07, 03:42:04,VALID,1003.61,VALID,0,VALID,95.4373,VALID,0,VALID,23.4859,VALID,360,VALID,0,
2009-05-07, 03:43:04,VALID,1003.61,VALID,0,VALID,95.4068,VALID,0,VALID,23.4505,VALID,360,VALID,0,
2009-05-07, 03:44:04,VALID,1003.62,VALID,0,VALID,95.3915,VALID,0,VALID,23.3921,VALID,360,VALID,0,
2009-05-07, 03:45:04,VALID,1003.6,VALID,0,VALID,95.361,VALID,0,VALID,23.3125,VALID,360,VALID,0,
2009-05-07, 03:46:04,VALID,1003.57,VALID,0,VALID,95.3229,VALID,0,VALID,23.2754,VALID,360,VALID,0,
2009-05-07, 03:47:04,VALID,1003.56,VALID,0,VALID,95.3,VALID,0,VALID,23.2347,VALID,360,VALID,0,
2009-05-07, 03:48:04,VALID,1003.51,VALID,0,VALID,95.3457,VALID,0,VALID,23.3143,VALID,360,VALID,0,
2009-05-07, 03:49:04,VALID,1003.46,VALID,0,VALID,95.3839,VALID,0,VALID,23.3727,VALID,360,VALID,0,
2009-05-07, 03:50:04,VALID,1003.49,VALID,0,VALID,95.3839,VALID,0,VALID,23.3125,VALID,360,VALID,0,
2009-05-07, 03:51:04,VALID,1003.5,VALID,0,VALID,95.3763,VALID,0,VALID,23.3337,VALID,360,VALID,0,